Time,TemperatureF,DewpointF,PressureIn,WindDirection,WindDirectionDegrees,WindSpeedMPH,WindSpeedGustMPH,Humidity,HourlyPrecipIn,Conditions,Clouds,dailyrainin,SolarRadiationWatts/m^2,SoftwareType,DateUTC
2013-05-21 00:00:00,61.4,56.8,29.97,West,270,0.0,0.0,85,0.00,,,0.00,0000,Weather View 32 v70,2013-05-21 04:00:00,
2013-05-21 00:05:00,61.4,56.8,29.97,WNW,293,0.0,0.0,85,0.00,,,0.00,0000,Weather View 32 v70,2013-05-21 04:05:00,
2013-05-21 00:10:00,61.3,56.7,29.97,WNW,293,0.0,0.0,85,0.00,,,0.00,0000,Weather View 32 v70,2013-05-21 04:10:00,
2013-05-21 00:15:00,61.3,56.4,29.98,WNW,293,0.0,0.0,84,0.00,,,0.00,0000,Weather View 32 v70,2013-05-21 04:15:00,
2013-05-21 00:20:00,61.2,56.3,29.98,WNW,293,0.0,0.0,84,0.00,,,0.00,0000,Weather View 32 v70,2013-05-21 04:20:00,
2013-05-21 00:25:00,61.3,56.7,29.98,WNW,293,0.0,0.0,85,0.00,,,0.00,0000,Weather View 32 v70,2013-05-21 04:25:00,
2013-05-21 00:30:00,61.3,56.7,29.98,WNW,293,0.0,0.0,85,0.00,,,0.00,0000,Weather View 32 v70,2013-05-21 04:30:00,
2013-05-21 00:40:00,61.2,56.6,29.97,WNW,293,0.0,0.0,85,0.00,,,0.00,0000,Weather View 32 v70,2013-05-21 04:40:00,
2013-05-21 00:50:00,61.1,56.5,29.97,WNW,293,0.0,0.0,85,0.00,,,0.00,0000,Weather View 32 v70,2013-05-21 04:50:00,
2013-05-21 01:00:00,61.1,56.5,29.96,WNW,293,0.0,0.0,85,0.00,,,0.00,0000,Weather View 32 v70,2013-05-21 05:00:00,
2013-05-21 01:05:00,60.9,56.4,29.96,WNW,293,0.0,0.0,85,0.00,,,0.00,0008,Weather View 32 v70,2013-05-21 05:05:00,
2013-05-21 01:15:00,60.8,56.3,29.96,WNW,293,0.0,0.0,85,0.00,,,0.00,0000,Weather View 32 v70,2013-05-21 05:15:00,
2013-05-21 01:20:00,60.7,56.2,29.96,WNW,293,0.0,0.0,85,0.00,,,0.00,0000,Weather View 32 v70,2013-05-21 05:20:00,
2013-05-21 01:25:00,60.6,56.1,29.96,WNW,293,0.0,0.0,85,0.00,,,0.00,0000,Weather View 32 v70,2013-05-21 05:25:00,
2013-05-21 01:35:00,60.6,56.1,29.96,WNW,293,0.0,0.0,85,0.00,,,0.00,0000,Weather View 32 v70,2013-05-21 05:35:00,
2013-05-21 01:40:00,60.6,56.1,29.96,WNW,293,0.0,0.0,85,0.00,,,0.00,0008,Weather View 32 v70,2013-05-21 05:40:00,
2013-05-21 01:50:00,60.8,56.3,29.96,WNW,293,0.0,0.0,85,0.00,,,0.00,0000,Weather View 32 v70,2013-05-21 05:50:00,
2013-05-21 01:55:00,60.7,56.2,29.96,WNW,293,0.0,0.0,85,0.00,,,0.00,0000,Weather View 32 v70,2013-05-21 05:55:00,
2013-05-21 02:05:00,60.5,55.9,29.96,WNW,293,0.0,0.0,85,0.00,,,0.00,0000,Weather View 32 v70,2013-05-21 06:05:00,
2013-05-21 02:10:00,60.4,55.8,29.96,WNW,293,0.0,0.0,85,0.00,,,0.00,0000,Weather View 32 v70,2013-05-21 06:10:00,
2013-05-21 02:15:00,60.3,55.7,29.96,WNW,293,0.0,0.0,85,0.00,,,0.00,0000,Weather View 32 v70,2013-05-21 06:15:00,
2013-05-21 02:20:00,60.2,55.6,29.96,WNW,293,0.0,0.0,85,0.00,,,0.00,0008,Weather View 32 v70,2013-05-21 06:20:00,
2013-05-21 02:25:00,60.2,55.6,29.96,WNW,293,0.0,0.0,85,0.00,,,0.00,0000,Weather View 32 v70,2013-05-21 06:25:00,
2013-05-21 02:35:00,59.9,55.4,29.95,WNW,293,0.0,0.0,85,0.00,,,0.00,0000,Weather View 32 v70,2013-05-21 06:35:00,
2013-05-21 02:40:00,59.8,55.3,29.95,WNW,293,0.0,0.0,85,0.00,,,0.00,0000,Weather View 32 v70,2013-05-21 06:40:00,
2013-05-21 02:50:00,59.7,55.2,29.94,WNW,293,0.0,0.0,85,0.00,,,0.00,0000,Weather View 32 v70,2013-05-21 06:50:00,
2013-05-21 02:55:00,59.6,55.1,29.94,WNW,293,0.0,0.0,85,0.00,,,0.00,0000,Weather View 32 v70,2013-05-21 06:55:00,
2013-05-21 03:00:00,59.5,54.9,29.94,WNW,293,0.0,0.0,85,0.00,,,0.00,0000,Weather View 32 v70,2013-05-21 07:00:00,
2013-05-21 03:10:00,59.3,54.7,29.93,WNW,293,0.0,0.0,85,0.00,,,0.00,0000,Weather View 32 v70,2013-05-21 07:10:00,
2013-05-21 03:15:00,59.3,54.7,29.93,WNW,293,0.0,0.0,85,0.00,,,0.00,0000,Weather View 32 v70,2013-05-21 07:15:00,
2013-05-21 03:20:00,59.1,54.6,29.93,WNW,293,0.0,0.0,85,0.00,,,0.00,0008,Weather View 32 v70,2013-05-21 07:20:00,
2013-05-21 03:25:00,59.1,54.6,29.93,WNW,293,0.0,0.0,85,0.00,,,0.00,0008,Weather View 32 v70,2013-05-21 07:25:00,
2013-05-21 03:35:00,59.1,54.6,29.93,WNW,293,0.0,0.0,85,0.00,,,0.00,0016,Weather View 32 v70,2013-05-21 07:35:00,
2013-05-21 03:40:00,59.1,54.6,29.92,WNW,293,0.0,0.0,85,0.00,,,0.00,0008,Weather View 32 v70,2013-05-21 07:40:00,
2013-05-21 03:50:00,59.1,54.6,29.92,WNW,293,0.0,0.0,85,0.00,,,0.00,0000,Weather View 32 v70,2013-05-21 07:50:00,
2013-05-21 03:55:00,59.1,54.6,29.93,WNW,293,0.0,0.0,85,0.00,,,0.00,0000,Weather View 32 v70,2013-05-21 07:55:00,
2013-05-21 04:05:00,59.0,54.5,29.93,WNW,293,0.0,0.0,85,0.00,,,0.00,0000,Weather View 32 v70,2013-05-21 08:05:00,
2013-05-21 04:10:00,58.9,54.4,29.93,WNW,293,0.0,0.0,85,0.00,,,0.00,0000,Weather View 32 v70,2013-05-21 08:10:00,
2013-05-21 04:15:00,58.8,54.3,29.93,WNW,293,0.0,0.0,85,0.00,,,0.00,0008,Weather View 32 v70,2013-05-21 08:15:00,
2013-05-21 04:20:00,58.8,54.3,29.93,WNW,293,0.0,0.0,85,0.00,,,0.00,0008,Weather View 32 v70,2013-05-21 08:20:00,
2013-05-21 04:25:00,58.8,54.3,29.93,WNW,293,0.0,0.0,85,0.00,,,0.00,0000,Weather View 32 v70,2013-05-21 08:25:00,
2013-05-21 04:35:00,58.8,54.3,29.93,WNW,293,0.0,0.0,85,0.00,,,0.00,0000,Weather View 32 v70,2013-05-21 08:35:00,
2013-05-21 04:40:00,58.9,54.4,29.93,WNW,293,0.0,0.0,85,0.00,,,0.00,0000,Weather View 32 v70,2013-05-21 08:40:00,
2013-05-21 04:50:00,59.0,54.5,29.94,WNW,293,0.0,0.0,85,0.00,,,0.00,0000,Weather View 32 v70,2013-05-21 08:50:00,
2013-05-21 04:55:00,59.0,54.5,29.94,WNW,293,0.0,0.0,85,0.00,,,0.00,0000,Weather View 32 v70,2013-05-21 08:55:00,
2013-05-21 05:05:00,59.0,54.5,29.94,WNW,293,0.0,0.0,85,0.00,,,0.00,0000,Weather View 32 v70,2013-05-21 09:05:00,
2013-05-21 05:10:00,59.1,54.6,29.94,WNW,293,0.0,0.0,85,0.00,,,0.00,0000,Weather View 32 v70,2013-05-21 09:10:00,
2013-05-21 05:20:00,59.1,54.6,29.95,WNW,293,0.0,0.0,85,0.00,,,0.00,0000,Weather View 32 v70,2013-05-21 09:20:00,
2013-05-21 05:25:00,59.1,54.6,29.95,WNW,293,0.0,0.0,85,0.00,,,0.00,0000,Weather View 32 v70,2013-05-21 09:25:00,
2013-05-21 05:30:00,59.1,54.6,29.95,WSW,248,0.0,0.0,85,0.00,,,0.00,0000,Weather View 32 v70,2013-05-21 09:30:00,
2013-05-21 05:40:00,59.3,54.7,29.95,WNW,293,0.0,0.0,85,0.00,,,0.00,0016,Weather View 32 v70,2013-05-21 09:40:00,
2013-05-21 05:50:00,59.5,55.3,29.96,WNW,293,0.0,0.0,86,0.00,,,0.00,0016,Weather View 32 v70,2013-05-21 09:50:00,
2013-05-21 05:55:00,59.5,55.3,29.96,WNW,293,0.0,0.0,86,0.00,,,0.00,0024,Weather View 32 v70,2013-05-21 09:55:00,
2013-05-21 06:05:00,59.6,55.4,29.96,WNW,293,0.0,0.0,86,0.00,,,0.00,0008,Weather View 32 v70,2013-05-21 10:05:00,
2013-05-21 06:15:00,59.7,55.5,29.96,WNW,293,0.0,3.0,86,0.00,,,0.00,0032,Weather View 32 v70,2013-05-21 10:15:00,
2013-05-21 06:20:00,59.7,55.5,29.96,WNW,293,0.0,3.0,86,0.00,,,0.00,0016,Weather View 32 v70,2013-05-21 10:20:00,
2013-05-21 06:25:00,59.8,55.6,29.96,WNW,293,0.0,3.0,86,0.00,,,0.00,0024,Weather View 32 v70,2013-05-21 10:25:00,
2013-05-21 06:30:00,59.9,55.7,29.96,West,270,0.0,3.0,86,0.00,,,0.00,0064,Weather View 32 v70,2013-05-21 10:30:00,
2013-05-21 06:40:00,60.2,55.9,29.95,West,270,0.0,3.0,86,0.00,,,0.00,0080,Weather View 32 v70,2013-05-21 10:40:00,
2013-05-21 06:45:00,60.2,55.9,29.95,WNW,293,0.0,3.0,86,0.00,,,0.00,0064,Weather View 32 v70,2013-05-21 10:45:00,
2013-05-21 06:55:00,60.3,56.4,29.95,WNW,293,0.0,3.0,87,0.00,,,0.00,0088,Weather View 32 v70,2013-05-21 10:55:00,
2013-05-21 07:00:00,60.4,56.5,29.96,NW,315,0.0,3.0,87,0.00,,,0.00,0064,Weather View 32 v70,2013-05-21 11:00:00,
2013-05-21 07:05:00,60.6,56.7,29.96,NW,315,0.0,3.0,87,0.00,,,0.00,0112,Weather View 32 v70,2013-05-21 11:05:00,
2013-05-21 07:15:00,60.9,57.0,29.96,NW,315,0.0,3.0,87,0.00,,,0.00,0104,Weather View 32 v70,2013-05-21 11:15:00,
2013-05-21 07:20:00,60.9,57.0,29.96,WNW,293,0.0,3.0,87,0.00,,,0.00,0120,Weather View 32 v70,2013-05-21 11:20:00,
2013-05-21 07:25:00,61.1,56.8,29.96,WNW,293,0.0,3.0,86,0.00,,,0.00,0136,Weather View 32 v70,2013-05-21 11:25:00,
2013-05-21 07:35:00,61.5,57.3,29.96,NW,315,0.0,3.0,86,0.00,,,0.00,0168,Weather View 32 v70,2013-05-21 11:35:00,
2013-05-21 07:40:00,61.6,57.4,29.95,NW,315,0.0,3.0,86,0.00,,,0.00,0192,Weather View 32 v70,2013-05-21 11:40:00,
2013-05-21 07:50:00,62.3,58.0,29.94,NW,315,0.0,1.0,86,0.00,,,0.00,0168,Weather View 32 v70,2013-05-21 11:50:00,
2013-05-21 08:00:00,62.6,58.4,29.95,WNW,293,0.0,0.0,86,0.00,,,0.00,0216,Weather View 32 v70,2013-05-21 12:00:00,
2013-05-21 08:10:00,63.3,58.7,29.95,NW,315,0.0,0.0,85,0.00,,,0.00,0240,Weather View 32 v70,2013-05-21 12:10:00,
2013-05-21 08:15:00,63.6,59.0,29.95,WNW,293,0.0,0.0,85,0.00,,,0.00,0240,Weather View 32 v70,2013-05-21 12:15:00,
2013-05-21 08:20:00,63.9,59.3,29.95,West,270,0.0,0.0,85,0.00,,,0.00,0232,Weather View 32 v70,2013-05-21 12:20:00,
2013-05-21 08:25:00,64.4,59.8,29.95,WNW,293,0.0,0.0,85,0.00,,,0.00,0272,Weather View 32 v70,2013-05-21 12:25:00,
2013-05-21 08:30:00,64.9,60.2,29.95,WNW,293,0.0,0.0,85,0.00,,,0.00,0208,Weather View 32 v70,2013-05-21 12:30:00,
2013-05-21 08:35:00,65.1,60.5,29.95,WNW,293,0.0,0.0,85,0.00,,,0.00,0312,Weather View 32 v70,2013-05-21 12:35:00,
2013-05-21 08:40:00,65.6,60.6,29.95,NW,315,0.0,0.0,84,0.00,,,0.00,0368,Weather View 32 v70,2013-05-21 12:40:00,
2013-05-21 08:50:00,65.7,60.3,29.94,West,270,0.0,1.0,83,0.00,,,0.00,0304,Weather View 32 v70,2013-05-21 12:50:00,
2013-05-21 08:55:00,65.9,60.6,29.95,WNW,293,0.0,5.0,83,0.00,,,0.00,0368,Weather View 32 v70,2013-05-21 12:55:00,
2013-05-21 09:00:00,66.5,61.1,29.95,ENE,68,0.0,5.0,83,0.00,,,0.00,0544,Weather View 32 v70,2013-05-21 13:00:00,
2013-05-21 09:05:00,67.2,61.9,29.95,WNW,293,0.0,5.0,83,0.00,,,0.00,0616,Weather View 32 v70,2013-05-21 13:05:00,
2013-05-21 09:10:00,68.3,62.9,29.95,NW,315,0.0,5.0,83,0.00,,,0.00,0496,Weather View 32 v70,2013-05-21 13:10:00,
2013-05-21 09:15:00,69.4,63.6,29.94,WSW,248,0.0,5.0,82,0.00,,,0.00,0568,Weather View 32 v70,2013-05-21 13:15:00,
2013-05-21 09:25:00,70.5,63.6,29.94,SE,135,1.0,6.0,79,0.00,,,0.00,0200,Weather View 32 v70,2013-05-21 13:25:00,
2013-05-21 09:35:00,71.6,64.0,29.95,WSW,248,5.0,7.0,77,0.00,,,0.00,0576,Weather View 32 v70,2013-05-21 13:35:00,
2013-05-21 09:40:00,72.1,64.1,29.95,NNW,338,1.0,7.0,76,0.00,,,0.00,0640,Weather View 32 v70,2013-05-21 13:40:00,
2013-05-21 09:45:00,72.4,64.4,29.95,NW,315,0.0,7.0,76,0.00,,,0.00,0616,Weather View 32 v70,2013-05-21 13:45:00,
2013-05-21 09:50:00,72.6,63.8,29.95,WNW,293,0.0,7.0,74,0.00,,,0.00,0608,Weather View 32 v70,2013-05-21 13:50:00,
2013-05-21 09:55:00,73.0,64.2,29.94,SSW,203,3.0,8.0,74,0.00,,,0.00,0608,Weather View 32 v70,2013-05-21 13:55:00,
2013-05-21 10:05:00,73.7,64.0,29.94,SW,225,2.0,11.0,72,0.00,,,0.00,0272,Weather View 32 v70,2013-05-21 14:05:00,
2013-05-21 10:10:00,73.8,64.1,29.94,NW,315,0.0,11.0,72,0.00,,,0.00,0680,Weather View 32 v70,2013-05-21 14:10:00,
2013-05-21 10:15:00,74.4,65.6,29.95,WSW,248,3.0,11.0,74,0.00,,,0.00,0688,Weather View 32 v70,2013-05-21 14:15:00,
2013-05-21 10:25:00,75.0,64.1,29.95,WSW,248,1.0,14.0,69,0.00,,,0.00,0688,Weather View 32 v70,2013-05-21 14:25:00,
2013-05-21 10:30:00,75.5,64.9,29.94,SW,225,0.0,14.0,70,0.00,,,0.00,0720,Weather View 32 v70,2013-05-21 14:30:00,
2013-05-21 10:40:00,75.3,64.4,29.94,SW,225,0.0,14.0,69,0.00,,,0.00,0736,Weather View 32 v70,2013-05-21 14:40:00,
2013-05-21 10:45:00,76.0,65.1,29.93,SSW,203,2.0,14.0,69,0.00,,,0.00,0752,Weather View 32 v70,2013-05-21 14:45:00,
2013-05-21 10:55:00,76.2,64.9,29.93,West,270,4.0,14.0,68,0.00,,,0.00,0744,Weather View 32 v70,2013-05-21 14:55:00,
2013-05-21 11:05:00,77.5,65.2,29.93,WNW,293,0.0,14.0,66,0.00,,,0.00,0784,Weather View 32 v70,2013-05-21 15:05:00,
2013-05-21 11:15:00,77.6,64.8,29.92,NW,315,0.0,21.0,65,0.00,,,0.00,0784,Weather View 32 v70,2013-05-21 15:15:00,
2013-05-21 11:20:00,78.5,66.1,29.92,SW,225,3.0,21.0,66,0.00,,,0.00,0776,Weather View 32 v70,2013-05-21 15:20:00,
2013-05-21 11:25:00,78.8,66.0,29.91,WSW,248,4.0,21.0,65,0.00,,,0.00,0792,Weather View 32 v70,2013-05-21 15:25:00,
2013-05-21 11:30:00,78.7,65.0,29.91,NNW,338,0.0,21.0,63,0.00,,,0.00,0800,Weather View 32 v70,2013-05-21 15:30:00,
2013-05-21 11:35:00,79.1,65.3,29.91,NW,315,1.0,21.0,63,0.00,,,0.00,0808,Weather View 32 v70,2013-05-21 15:35:00,
2013-05-21 11:45:00,79.2,65.0,29.91,NNW,338,0.0,21.0,62,0.00,,,0.00,0824,Weather View 32 v70,2013-05-21 15:45:00,
2013-05-21 11:50:00,79.7,67.3,29.91,West,270,0.0,21.0,66,0.00,,,0.00,0824,Weather View 32 v70,2013-05-21 15:50:00,
2013-05-21 12:00:00,80.4,66.1,29.91,NW,315,0.0,21.0,62,0.00,,,0.00,0824,Weather View 32 v70,2013-05-21 16:00:00,
2013-05-21 12:05:00,80.4,65.7,29.91,WNW,293,0.0,21.0,61,0.00,,,0.00,0832,Weather View 32 v70,2013-05-21 16:05:00,
2013-05-21 12:15:00,79.6,64.9,29.91,WNW,293,2.0,12.0,61,0.00,,,0.00,0816,Weather View 32 v70,2013-05-21 16:15:00,
2013-05-21 12:20:00,79.8,65.1,29.90,West,270,0.0,12.0,61,0.00,,,0.00,0824,Weather View 32 v70,2013-05-21 16:20:00,
2013-05-21 12:30:00,80.3,64.6,29.90,WSW,248,2.0,12.0,59,0.00,,,0.00,0824,Weather View 32 v70,2013-05-21 16:30:00,
2013-05-21 12:40:00,80.6,65.4,29.90,WNW,293,0.0,12.0,60,0.00,,,0.00,0840,Weather View 32 v70,2013-05-21 16:40:00,
2013-05-21 12:45:00,80.5,64.8,29.90,WNW,293,0.0,12.0,59,0.00,,,0.00,0832,Weather View 32 v70,2013-05-21 16:45:00,
2013-05-21 12:55:00,80.6,65.4,29.90,SW,225,2.0,13.0,60,0.00,,,0.00,0824,Weather View 32 v70,2013-05-21 16:55:00,
2013-05-21 13:05:00,80.9,65.6,29.90,WSW,248,0.0,13.0,60,0.00,,,0.00,0800,Weather View 32 v70,2013-05-21 17:05:00,
2013-05-21 13:15:00,81.1,64.8,29.89,East,90,4.0,13.0,58,0.00,,,0.00,0808,Weather View 32 v70,2013-05-21 17:15:00,
2013-05-21 13:20:00,81.4,65.7,29.89,West,270,3.0,13.0,59,0.00,,,0.00,0808,Weather View 32 v70,2013-05-21 17:20:00,
2013-05-21 13:25:00,81.3,66.5,29.89,SSW,203,5.0,13.0,61,0.00,,,0.00,0784,Weather View 32 v70,2013-05-21 17:25:00,
2013-05-21 13:35:00,81.1,64.8,29.89,West,270,2.0,13.0,58,0.00,,,0.00,0792,Weather View 32 v70,2013-05-21 17:35:00,
2013-05-21 13:45:00,80.7,64.5,29.89,WNW,293,0.0,15.0,58,0.00,,,0.00,0776,Weather View 32 v70,2013-05-21 17:45:00,
2013-05-21 13:50:00,80.9,64.6,29.89,WSW,248,0.0,15.0,58,0.00,,,0.00,0768,Weather View 32 v70,2013-05-21 17:50:00,
2013-05-21 13:55:00,80.4,64.7,29.89,SE,135,0.0,15.0,59,0.00,,,0.00,0792,Weather View 32 v70,2013-05-21 17:55:00,
2013-05-21 14:00:00,80.5,63.8,29.89,SE,135,0.0,15.0,57,0.00,,,0.00,0752,Weather View 32 v70,2013-05-21 18:00:00,
2013-05-21 14:05:00,80.5,64.3,29.89,NE,45,0.0,15.0,58,0.00,,,0.00,0792,Weather View 32 v70,2013-05-21 18:05:00,
2013-05-21 14:15:00,80.6,63.4,29.89,WSW,248,0.0,15.0,56,0.00,,,0.00,0768,Weather View 32 v70,2013-05-21 18:15:00,
2013-05-21 14:25:00,80.6,63.4,29.89,SE,135,0.0,15.0,56,0.00,,,0.00,0744,Weather View 32 v70,2013-05-21 18:25:00,
2013-05-21 14:30:00,80.4,63.2,29.89,East,90,0.0,15.0,56,0.00,,,0.00,0744,Weather View 32 v70,2013-05-21 18:30:00,
2013-05-21 14:35:00,80.4,64.2,29.89,East,90,0.0,15.0,58,0.00,,,0.00,0704,Weather View 32 v70,2013-05-21 18:35:00,
2013-05-21 14:40:00,80.4,64.2,29.89,East,90,1.0,15.0,58,0.00,,,0.00,0736,Weather View 32 v70,2013-05-21 18:40:00,
2013-05-21 14:48:00,80.4,63.2,29.89,East,90,0.0,12.0,56,0.00,,,0.00,0696,Weather View 32 v70,2013-05-21 18:48:00,
2013-05-21 14:55:00,80.6,64.4,29.89,West,270,0.0,12.0,58,0.00,,,0.00,0704,Weather View 32 v70,2013-05-21 18:55:00,
2013-05-21 15:00:00,80.5,63.3,29.88,SSE,158,3.0,12.0,56,0.00,,,0.00,0688,Weather View 32 v70,2013-05-21 19:00:00,
2013-05-21 15:10:00,80.5,63.3,29.88,NNW,338,0.0,12.0,56,0.00,,,0.00,0672,Weather View 32 v70,2013-05-21 19:10:00,
2013-05-21 15:15:00,80.1,62.4,29.87,SW,225,0.0,12.0,55,0.00,,,0.00,0664,Weather View 32 v70,2013-05-21 19:15:00,
2013-05-21 15:25:00,80.1,62.9,29.86,West,270,6.0,10.0,56,0.00,,,0.00,0640,Weather View 32 v70,2013-05-21 19:25:00,
2013-05-21 15:30:00,80.0,63.3,29.86,SW,225,0.0,10.0,57,0.00,,,0.00,0632,Weather View 32 v70,2013-05-21 19:30:00,
2013-05-21 15:40:00,80.1,62.9,29.86,South,180,4.0,10.0,56,0.00,,,0.00,0592,Weather View 32 v70,2013-05-21 19:40:00,
2013-05-21 15:45:00,79.5,63.4,29.87,WSW,248,0.0,10.0,58,0.00,,,0.00,0584,Weather View 32 v70,2013-05-21 19:45:00,
2013-05-21 15:50:00,79.4,62.8,29.86,SE,135,0.0,10.0,57,0.00,,,0.00,0592,Weather View 32 v70,2013-05-21 19:50:00,
2013-05-21 15:55:00,79.3,62.7,29.86,SSE,158,0.0,10.0,57,0.00,,,0.00,0568,Weather View 32 v70,2013-05-21 19:55:00,
2013-05-21 16:05:00,78.6,61.5,29.86,WNW,293,0.0,10.0,56,0.00,,,0.00,0544,Weather View 32 v70,2013-05-21 20:05:00,
2013-05-21 16:10:00,78.4,62.3,29.85,West,270,0.0,10.0,58,0.00,,,0.00,0536,Weather View 32 v70,2013-05-21 20:10:00,
2013-05-21 16:15:00,77.9,60.9,29.85,WSW,248,0.0,10.0,56,0.00,,,0.00,0520,Weather View 32 v70,2013-05-21 20:15:00,
2013-05-21 16:20:00,77.7,62.7,29.85,SW,225,0.0,10.0,60,0.00,,,0.00,0480,Weather View 32 v70,2013-05-21 20:20:00,
2013-05-21 16:25:00,77.6,62.1,29.86,SW,225,0.0,8.0,59,0.00,,,0.00,0464,Weather View 32 v70,2013-05-21 20:25:00,
2013-05-21 16:30:00,77.4,62.3,29.86,SW,225,0.0,8.0,60,0.00,,,0.00,0472,Weather View 32 v70,2013-05-21 20:30:00,
2013-05-21 16:40:00,76.8,61.8,29.86,WNW,293,0.0,8.0,60,0.00,,,0.00,0440,Weather View 32 v70,2013-05-21 20:40:00,
2013-05-21 16:45:00,76.6,62.1,29.86,SW,225,6.0,10.0,61,0.00,,,0.00,0416,Weather View 32 v70,2013-05-21 20:45:00,
2013-05-21 16:50:00,76.6,63.0,29.86,NNW,338,0.0,11.0,63,0.00,,,0.00,0440,Weather View 32 v70,2013-05-21 20:50:00,
2013-05-21 17:00:00,75.9,62.8,29.86,SSW,203,5.0,17.0,64,0.00,,,0.00,0400,Weather View 32 v70,2013-05-21 21:00:00,
2013-05-21 17:05:00,75.6,62.0,29.86,SW,225,2.0,17.0,63,0.00,,,0.00,0384,Weather View 32 v70,2013-05-21 21:05:00,
2013-05-21 17:10:00,75.3,61.8,29.86,WSW,248,7.0,17.0,63,0.00,,,0.00,0352,Weather View 32 v70,2013-05-21 21:10:00,
2013-05-21 17:15:00,75.0,62.0,29.86,NNE,23,0.0,17.0,64,0.00,,,0.00,0360,Weather View 32 v70,2013-05-21 21:15:00,
2013-05-21 17:25:00,74.8,61.7,29.85,West,270,4.0,17.0,64,0.00,,,0.00,0104,Weather View 32 v70,2013-05-21 21:25:00,
2013-05-21 17:30:00,74.7,62.1,29.85,NW,315,0.0,17.0,65,0.00,,,0.00,0120,Weather View 32 v70,2013-05-21 21:30:00,
2013-05-21 17:40:00,74.7,62.1,29.85,WSW,248,0.0,17.0,65,0.00,,,0.00,0136,Weather View 32 v70,2013-05-21 21:40:00,
2013-05-21 17:45:00,74.6,62.4,29.85,West,270,0.0,17.0,66,0.00,,,0.00,0120,Weather View 32 v70,2013-05-21 21:45:00,
2013-05-21 17:50:00,74.8,62.6,29.85,SW,225,0.0,17.0,66,0.00,,,0.00,0136,Weather View 32 v70,2013-05-21 21:50:00,
2013-05-21 18:00:00,74.7,62.5,29.85,NNW,338,0.0,13.0,66,0.00,,,0.00,0128,Weather View 32 v70,2013-05-21 22:00:00,
2013-05-21 18:10:00,74.4,62.7,29.87,WNW,293,2.0,11.0,67,0.00,,,0.00,0072,Weather View 32 v70,2013-05-21 22:10:00,
2013-05-21 18:15:00,73.9,62.6,29.87,West,270,2.0,11.0,68,0.00,,,0.00,0104,Weather View 32 v70,2013-05-21 22:15:00,
2013-05-21 18:25:00,73.4,62.6,29.88,WSW,248,0.0,9.0,69,0.00,,,0.00,0072,Weather View 32 v70,2013-05-21 22:25:00,
2013-05-21 18:30:00,73.3,62.5,29.88,WNW,293,0.0,9.0,69,0.00,,,0.00,0072,Weather View 32 v70,2013-05-21 22:30:00,
2013-05-21 18:35:00,73.2,62.4,29.88,West,270,1.0,9.0,69,0.00,,,0.00,0056,Weather View 32 v70,2013-05-21 22:35:00,
2013-05-21 18:40:00,73.1,62.3,29.88,West,270,0.0,9.0,69,0.00,,,0.00,0072,Weather View 32 v70,2013-05-21 22:40:00,
2013-05-21 18:50:00,72.9,62.5,29.88,WNW,293,0.0,9.0,70,0.00,,,0.00,0040,Weather View 32 v70,2013-05-21 22:50:00,
2013-05-21 19:00:00,72.3,61.9,29.90,WNW,293,0.0,9.0,70,0.00,,,0.00,0048,Weather View 32 v70,2013-05-21 23:00:00,
2013-05-21 19:05:00,72.1,62.1,29.91,NNW,338,0.0,9.0,71,0.00,,,0.00,0016,Weather View 32 v70,2013-05-21 23:05:00,
2013-05-21 19:15:00,71.6,62.1,29.93,NNW,338,0.0,9.0,72,0.00,,,0.00,0008,Weather View 32 v70,2013-05-21 23:15:00,
2013-05-21 19:20:00,71.5,62.4,29.94,North,0,0.0,6.0,73,0.00,,,0.00,0016,Weather View 32 v70,2013-05-21 23:20:00,
2013-05-21 19:25:00,70.1,59.0,29.94,NNE,23,2.0,14.0,68,0.00,,,0.00,0008,Weather View 32 v70,2013-05-21 23:25:00,
2013-05-21 19:30:00,68.7,57.7,29.94,North,0,1.0,14.0,68,0.00,,,0.00,0000,Weather View 32 v70,2013-05-21 23:30:00,
2013-05-21 19:40:00,66.5,56.7,29.94,North,0,0.0,14.0,71,0.00,,,0.00,0000,Weather View 32 v70,2013-05-21 23:40:00,
2013-05-21 19:45:00,65.7,55.6,29.94,North,0,1.0,14.0,70,0.00,,,0.00,0008,Weather View 32 v70,2013-05-21 23:45:00,
2013-05-21 19:50:00,65.1,55.8,29.94,North,0,0.0,14.0,72,0.00,,,0.00,0000,Weather View 32 v70,2013-05-21 23:50:00,
2013-05-21 20:00:00,64.8,55.9,29.92,ENE,68,0.0,14.0,73,0.00,,,0.00,0000,Weather View 32 v70,2013-05-22 00:00:00,
2013-05-21 20:05:00,64.5,55.7,29.92,ENE,68,0.0,14.0,73,0.00,,,0.00,0008,Weather View 32 v70,2013-05-22 00:05:00,
2013-05-21 20:10:00,64.4,55.6,29.92,East,90,0.0,14.0,73,0.00,,,0.00,0000,Weather View 32 v70,2013-05-22 00:10:00,
2013-05-21 20:20:00,64.2,55.7,29.93,East,90,0.0,14.0,74,0.00,,,0.00,0000,Weather View 32 v70,2013-05-22 00:20:00,
2013-05-21 20:25:00,64.1,55.6,29.93,East,90,0.0,6.0,74,0.00,,,0.00,0008,Weather View 32 v70,2013-05-22 00:25:00,
2013-05-21 20:30:00,64.0,56.2,29.93,East,90,0.0,6.0,76,0.00,,,0.00,0000,Weather View 32 v70,2013-05-22 00:30:00,
2013-05-21 20:35:00,63.8,56.0,29.92,East,90,0.0,5.0,76,0.00,,,0.00,0000,Weather View 32 v70,2013-05-22 00:35:00,
2013-05-21 20:45:00,63.6,55.9,29.94,ENE,68,0.0,5.0,76,0.00,,,0.00,0000,Weather View 32 v70,2013-05-22 00:45:00,
2013-05-21 20:50:00,63.5,56.2,29.94,ENE,68,0.0,5.0,77,0.00,,,0.00,0000,Weather View 32 v70,2013-05-22 00:50:00,
2013-05-21 20:55:00,63.3,55.6,29.94,ENE,68,0.0,6.0,76,0.00,,,0.00,0000,Weather View 32 v70,2013-05-22 00:55:00,
2013-05-21 21:00:00,63.0,55.3,29.93,North,0,0.0,10.0,76,0.00,,,0.00,0008,Weather View 32 v70,2013-05-22 01:00:00,
2013-05-21 21:05:00,62.6,55.3,29.93,NNE,23,1.0,10.0,77,0.00,,,0.00,0000,Weather View 32 v70,2013-05-22 01:05:00,
2013-05-21 21:15:00,62.1,55.1,29.92,NE,45,0.0,10.0,78,0.00,,,0.00,0000,Weather View 32 v70,2013-05-22 01:15:00,
2013-05-21 21:20:00,61.6,54.7,29.91,East,90,0.0,10.0,78,0.00,,,0.00,0000,Weather View 32 v70,2013-05-22 01:20:00,
2013-05-21 21:30:00,61.1,54.1,29.92,SE,135,4.0,10.0,78,0.00,,,0.00,0000,Weather View 32 v70,2013-05-22 01:30:00,
2013-05-21 21:40:00,60.5,53.6,29.90,SE,135,4.0,10.0,78,0.00,,,0.00,0000,Weather View 32 v70,2013-05-22 01:40:00,
2013-05-21 21:50:00,60.0,53.1,29.91,East,90,0.0,10.0,78,0.00,,,0.00,0008,Weather View 32 v70,2013-05-22 01:50:00,
2013-05-21 21:55:00,59.9,53.0,29.91,NE,45,0.0,10.0,78,0.00,,,0.00,0000,Weather View 32 v70,2013-05-22 01:55:00,
2013-05-21 22:00:00,59.9,53.0,29.91,NE,45,0.0,9.0,78,0.00,,,0.00,0000,Weather View 32 v70,2013-05-22 02:00:00,
2013-05-21 22:10:00,59.7,52.8,29.93,NE,45,0.0,9.0,78,0.00,,,0.00,0000,Weather View 32 v70,2013-05-22 02:10:00,
2013-05-21 22:15:00,59.7,53.5,29.94,NE,45,0.0,9.0,80,0.00,,,0.00,0000,Weather View 32 v70,2013-05-22 02:15:00,
2013-05-21 22:20:00,59.5,53.3,29.95,NNW,338,6.0,9.0,80,0.00,,,0.00,0008,Weather View 32 v70,2013-05-22 02:20:00,
2013-05-21 22:30:00,58.9,52.4,29.95,NNE,23,0.0,9.0,79,0.00,,,0.00,0000,Weather View 32 v70,2013-05-22 02:30:00,
2013-05-21 22:35:00,58.6,52.4,29.95,NNE,23,0.0,9.0,80,0.00,,,0.00,0008,Weather View 32 v70,2013-05-22 02:35:00,
2013-05-21 22:40:00,58.5,52.0,29.94,ENE,68,1.0,8.0,79,0.00,,,0.00,0000,Weather View 32 v70,2013-05-22 02:40:00,
2013-05-21 22:45:00,58.1,52.0,29.94,NNE,23,0.0,6.0,80,0.00,,,0.00,0000,Weather View 32 v70,2013-05-22 02:45:00,
2013-05-21 22:50:00,57.7,51.5,29.93,North,0,0.0,6.0,80,0.00,,,0.00,0000,Weather View 32 v70,2013-05-22 02:50:00,
2013-05-21 23:00:00,57.3,51.2,29.93,North,0,0.0,6.0,80,0.00,,,0.00,0000,Weather View 32 v70,2013-05-22 03:00:00,
2013-05-21 23:10:00,57.0,51.2,29.93,North,0,0.0,6.0,81,0.00,,,0.00,0016,Weather View 32 v70,2013-05-22 03:10:00,
2013-05-21 23:15:00,56.9,51.1,29.92,North,0,0.0,6.0,81,0.00,,,0.00,0008,Weather View 32 v70,2013-05-22 03:15:00,
2013-05-21 23:20:00,56.7,50.9,29.92,North,0,0.0,7.0,81,0.00,,,0.00,0000,Weather View 32 v70,2013-05-22 03:20:00,
2013-05-21 23:25:00,56.7,50.9,29.93,North,0,0.0,7.0,81,0.00,,,0.00,0000,Weather View 32 v70,2013-05-22 03:25:00,
2013-05-21 23:30:00,56.4,50.7,29.93,NNW,338,0.0,7.0,81,0.00,,,0.00,0000,Weather View 32 v70,2013-05-22 03:30:00,
2013-05-21 23:40:00,56.1,50.7,29.92,NNE,23,0.0,7.0,82,0.00,,,0.00,0000,Weather View 32 v70,2013-05-22 03:40:00,
2013-05-21 23:45:00,56.0,50.6,29.93,North,0,0.0,7.0,82,0.00,,,0.00,0000,Weather View 32 v70,2013-05-22 03:45:00,
2013-05-21 23:50:00,56.0,50.6,29.93,NNW,338,0.0,7.0,82,0.00,,,0.00,0000,Weather View 32 v70,2013-05-22 03:50:00,
2013-05-21 23:55:00,56.1,50.7,29.94,NNW,338,0.0,7.0,82,0.00,,,0.00,0000,Weather View 32 v70,2013-05-22 03:55:00,